Year,Month,Day,Hour,Minute,Value (Times are PST for temperature in C)
2009,04,18,00,00,3.30
2009,04,18,00,01,3.30
2009,04,18,00,02,3.30
2009,04,18,00,03,3.30
2009,04,18,00,04,3.30
2009,04,18,00,05,3.30
2009,04,18,00,06,3.30
2009,04,18,00,07,3.30
2009,04,18,00,08,3.30
2009,04,18,00,09,3.20
2009,04,18,00,10,3.20
2009,04,18,00,11,3.20
2009,04,18,00,12,3.20
2009,04,18,00,13,3.20
2009,04,18,00,14,3.10
2009,04,18,00,15,3.10
2009,04,18,00,16,3.10
2009,04,18,00,17,3.10
2009,04,18,00,18,3.10
2009,04,18,00,19,3.10
2009,04,18,00,20,3.00
2009,04,18,00,21,3.00
2009,04,18,00,22,3.00
2009,04,18,00,23,3.00
2009,04,18,00,24,3.00
2009,04,18,00,25,3.00
2009,04,18,00,26,3.00
2009,04,18,00,27,3.00
2009,04,18,00,28,3.00
2009,04,18,00,29,3.00
2009,04,18,00,30,3.00
2009,04,18,00,31,3.10
2009,04,18,00,32,3.10
2009,04,18,00,33,3.10
2009,04,18,00,34,3.10
2009,04,18,00,35,3.10
2009,04,18,00,36,3.00
2009,04,18,00,37,3.00
2009,04,18,00,38,3.00
2009,04,18,00,39,3.00
2009,04,18,00,40,3.00
2009,04,18,00,41,2.90
2009,04,18,00,42,2.90
2009,04,18,00,43,2.90
2009,04,18,00,44,2.90
2009,04,18,00,45,2.90
2009,04,18,00,46,3.00
2009,04,18,00,47,3.00
2009,04,18,00,48,3.00
2009,04,18,00,49,3.00
2009,04,18,00,50,3.10
2009,04,18,00,51,3.10
2009,04,18,00,52,3.10
2009,04,18,00,53,3.10
2009,04,18,00,54,3.10
2009,04,18,00,55,3.20
2009,04,18,00,56,3.20
2009,04,18,00,57,3.20
2009,04,18,00,58,3.20
2009,04,18,00,59,3.30
2009,04,18,01,00,3.30
2009,04,18,01,01,3.30
2009,04,18,01,02,3.40
2009,04,18,01,03,3.40
2009,04,18,01,04,3.40
2009,04,18,01,05,3.40
2009,04,18,01,06,3.40
2009,04,18,01,07,3.40
2009,04,18,01,08,3.40
2009,04,18,01,09,3.50
2009,04,18,01,10,3.50
2009,04,18,01,11,3.60
2009,04,18,01,12,3.60
2009,04,18,01,13,3.70
2009,04,18,01,14,3.70
2009,04,18,01,15,3.70
2009,04,18,01,16,3.70
2009,04,18,01,17,3.70
2009,04,18,01,18,3.70
2009,04,18,01,19,3.70
2009,04,18,01,20,3.70
2009,04,18,01,21,3.80
2009,04,18,01,22,3.80
2009,04,18,01,23,3.80
2009,04,18,01,24,3.80
2009,04,18,01,25,3.80
2009,04,18,01,26,3.90
2009,04,18,01,27,3.90
2009,04,18,01,28,3.90
2009,04,18,01,29,3.90
2009,04,18,01,30,3.80
2009,04,18,01,31,3.80
2009,04,18,01,32,3.70
2009,04,18,01,33,3.60
2009,04,18,01,34,3.60
2009,04,18,01,35,3.50
2009,04,18,01,36,3.50
2009,04,18,01,37,3.40
2009,04,18,01,38,3.40
2009,04,18,01,39,3.40
2009,04,18,01,40,3.30
2009,04,18,01,41,3.30
2009,04,18,01,42,3.30
2009,04,18,01,43,3.30
2009,04,18,01,44,3.30
2009,04,18,01,45,3.30
2009,04,18,01,46,3.30
2009,04,18,01,47,3.30
2009,04,18,01,48,3.20
2009,04,18,01,49,3.20
2009,04,18,01,50,3.20
2009,04,18,01,51,3.20
2009,04,18,01,52,3.10
2009,04,18,01,53,3.10
2009,04,18,01,54,3.10
2009,04,18,01,55,3.10
2009,04,18,01,56,3.00
2009,04,18,01,57,3.00
2009,04,18,01,58,3.00
2009,04,18,01,59,2.90
2009,04,18,02,00,2.90
2009,04,18,02,01,2.90
2009,04,18,02,02,2.90
2009,04,18,02,03,2.90
2009,04,18,02,04,2.80
2009,04,18,02,05,2.80
2009,04,18,02,06,2.80
2009,04,18,02,07,2.80
2009,04,18,02,08,2.80
2009,04,18,02,09,2.80
2009,04,18,02,10,2.80
2009,04,18,02,11,2.80
2009,04,18,02,12,2.80
2009,04,18,02,13,2.80
2009,04,18,02,14,2.80
2009,04,18,02,15,2.90
2009,04,18,02,16,2.90
2009,04,18,02,17,2.90
2009,04,18,02,18,2.90
2009,04,18,02,19,3.00
2009,04,18,02,20,3.00
2009,04,18,02,21,3.10
2009,04,18,02,22,3.10
2009,04,18,02,23,3.10
2009,04,18,02,24,3.10
2009,04,18,02,25,3.10
2009,04,18,02,26,3.20
2009,04,18,02,27,3.20
2009,04,18,02,28,3.20
2009,04,18,02,29,3.30
2009,04,18,02,30,3.30
2009,04,18,02,31,3.30
2009,04,18,02,32,3.40
2009,04,18,02,33,3.40
2009,04,18,02,34,3.50
2009,04,18,02,35,3.60
2009,04,18,02,36,3.70
2009,04,18,02,37,3.80
2009,04,18,02,38,3.80
2009,04,18,02,39,3.90
2009,04,18,02,40,4.00
2009,04,18,02,41,4.00
2009,04,18,02,42,4.10
2009,04,18,02,43,4.10
2009,04,18,02,44,4.20
2009,04,18,02,45,4.20
2009,04,18,02,46,4.20
2009,04,18,02,47,4.30
2009,04,18,02,48,4.30
2009,04,18,02,49,4.30
2009,04,18,02,50,4.30
2009,04,18,02,51,4.30
2009,04,18,02,52,4.30
2009,04,18,02,53,4.30
2009,04,18,02,54,4.30
2009,04,18,02,55,4.40
2009,04,18,02,56,4.40
2009,04,18,02,57,4.40
2009,04,18,02,58,4.40
2009,04,18,02,59,4.40
2009,04,18,03,00,4.30
2009,04,18,03,01,4.30
2009,04,18,03,02,4.30
2009,04,18,03,03,4.20
2009,04,18,03,04,4.20
2009,04,18,03,05,4.10
2009,04,18,03,06,4.10
2009,04,18,03,07,4.00
2009,04,18,03,08,4.00
2009,04,18,03,09,3.90
2009,04,18,03,10,3.80
2009,04,18,03,11,3.80
2009,04,18,03,12,3.80
2009,04,18,03,13,3.70
2009,04,18,03,14,3.70
2009,04,18,03,15,3.70
2009,04,18,03,16,3.70
2009,04,18,03,17,3.60
2009,04,18,03,18,3.60
2009,04,18,03,19,3.60
2009,04,18,03,20,3.60
2009,04,18,03,21,3.60
2009,04,18,03,22,3.60
2009,04,18,03,23,3.60
2009,04,18,03,24,3.60
2009,04,18,03,25,3.60
2009,04,18,03,26,3.60
2009,04,18,03,27,3.60
2009,04,18,03,28,3.60
2009,04,18,03,29,3.50
2009,04,18,03,30,3.50
2009,04,18,03,31,3.40
2009,04,18,03,32,3.40
2009,04,18,03,33,3.30
2009,04,18,03,34,3.30
2009,04,18,03,35,3.30
2009,04,18,03,36,3.20
2009,04,18,03,37,3.20
2009,04,18,03,38,3.20
2009,04,18,03,39,3.20
2009,04,18,03,40,3.20
2009,04,18,03,41,3.20
2009,04,18,03,42,3.30
2009,04,18,03,43,3.30
2009,04,18,03,44,3.40
2009,04,18,03,45,3.40
2009,04,18,03,46,3.50
2009,04,18,03,47,3.50
2009,04,18,03,48,3.50
2009,04,18,03,49,3.40
2009,04,18,03,50,3.40
2009,04,18,03,51,3.30
2009,04,18,03,52,3.30
2009,04,18,03,53,3.20
2009,04,18,03,54,3.20
2009,04,18,03,55,3.20
2009,04,18,03,56,3.10
2009,04,18,03,57,3.10
2009,04,18,03,58,3.10
2009,04,18,03,59,3.00
2009,04,18,04,00,3.00
2009,04,18,04,01,2.90
2009,04,18,04,02,2.90
2009,04,18,04,03,2.90
2009,04,18,04,05,2.90
2009,04,18,04,06,2.90
2009,04,18,04,07,2.80
2009,04,18,04,08,2.80
2009,04,18,04,09,2.80
2009,04,18,04,10,2.80
2009,04,18,04,11,2.80
2009,04,18,04,12,2.70
2009,04,18,04,13,2.70
2009,04,18,04,14,2.70
2009,04,18,04,15,2.60
2009,04,18,04,16,2.60
2009,04,18,04,17,2.60
2009,04,18,04,18,2.50
2009,04,18,04,19,2.50
2009,04,18,04,20,2.50
2009,04,18,04,21,2.40
2009,04,18,04,22,2.40
2009,04,18,04,23,2.50
2009,04,18,04,24,2.60
2009,04,18,04,25,2.70
2009,04,18,04,26,2.70
2009,04,18,04,27,2.70
2009,04,18,04,28,2.70
2009,04,18,04,29,2.70
2009,04,18,04,30,2.70
2009,04,18,04,31,2.70
2009,04,18,04,32,2.70
2009,04,18,04,33,2.70
2009,04,18,04,34,2.70
2009,04,18,04,35,2.70
2009,04,18,04,36,2.80
2009,04,18,04,37,3.00
2009,04,18,04,38,3.10
2009,04,18,04,39,3.20
2009,04,18,04,40,3.20
2009,04,18,04,41,3.20
2009,04,18,04,42,3.20
2009,04,18,04,43,3.10
2009,04,18,04,44,3.00
2009,04,18,04,45,2.90
2009,04,18,04,46,2.80
2009,04,18,04,47,2.80
2009,04,18,04,48,2.70
2009,04,18,04,49,2.70
2009,04,18,04,50,2.60
2009,04,18,04,51,2.50
2009,04,18,04,52,2.50
2009,04,18,04,53,2.40
2009,04,18,04,54,2.40
2009,04,18,04,55,2.40
2009,04,18,04,56,2.30
2009,04,18,04,57,2.30
2009,04,18,04,58,2.30
2009,04,18,04,59,2.30
2009,04,18,05,00,2.40
2009,04,18,05,01,2.40
2009,04,18,05,02,2.40
2009,04,18,05,03,2.40
2009,04,18,05,04,2.40
2009,04,18,05,05,2.40
2009,04,18,05,06,2.40
2009,04,18,05,07,2.40
2009,04,18,05,08,2.30
2009,04,18,05,09,2.30
2009,04,18,05,10,2.30
2009,04,18,05,11,2.20
2009,04,18,05,12,2.20
2009,04,18,05,13,2.20
2009,04,18,05,14,2.20
2009,04,18,05,15,2.10
2009,04,18,05,16,2.10
2009,04,18,05,17,2.10
2009,04,18,05,18,2.10
2009,04,18,05,19,2.10
2009,04,18,05,20,2.10
2009,04,18,05,21,2.00
2009,04,18,05,22,2.00
2009,04,18,05,23,2.00
2009,04,18,05,24,2.00
2009,04,18,05,25,2.00
2009,04,18,05,26,2.00
2009,04,18,05,27,2.00
2009,04,18,05,28,2.00
2009,04,18,05,29,2.00
2009,04,18,05,30,2.00
2009,04,18,05,31,2.00
2009,04,18,05,32,2.00
2009,04,18,05,33,2.00
2009,04,18,05,34,2.00
2009,04,18,05,35,2.00
2009,04,18,05,36,2.00
2009,04,18,05,37,2.00
2009,04,18,05,38,2.00
2009,04,18,05,39,2.00
2009,04,18,05,40,2.00
2009,04,18,05,41,2.00
2009,04,18,05,42,2.00
2009,04,18,05,43,2.00
2009,04,18,05,44,1.90
2009,04,18,05,45,1.90
2009,04,18,05,46,1.90
2009,04,18,05,47,1.90
2009,04,18,05,48,1.90
2009,04,18,05,49,1.90
2009,04,18,05,50,1.90
2009,04,18,05,51,1.90
2009,04,18,05,52,2.00
2009,04,18,05,53,2.00
2009,04,18,05,54,2.00
2009,04,18,05,55,2.00
2009,04,18,05,56,2.10
2009,04,18,05,57,2.00
2009,04,18,05,58,2.00
2009,04,18,05,59,1.90
2009,04,18,06,00,1.90
2009,04,18,06,01,1.80
2009,04,18,06,02,1.80
2009,04,18,06,03,1.80
2009,04,18,06,04,1.80
2009,04,18,06,05,1.80
2009,04,18,06,06,1.80
2009,04,18,06,07,1.80
2009,04,18,06,08,1.80
2009,04,18,06,09,1.80
2009,04,18,06,10,1.80
2009,04,18,06,11,1.80
2009,04,18,06,12,1.80
2009,04,18,06,13,1.80
2009,04,18,06,14,1.90
2009,04,18,06,15,1.90
2009,04,18,06,16,1.80
2009,04,18,06,17,1.80
2009,04,18,06,18,1.90
2009,04,18,06,19,1.90
2009,04,18,06,20,1.80
2009,04,18,06,21,1.80
2009,04,18,06,22,1.80
2009,04,18,06,23,1.80
2009,04,18,06,24,1.80
2009,04,18,06,25,1.80
2009,04,18,06,26,1.80
2009,04,18,06,27,1.80
2009,04,18,06,28,1.80
2009,04,18,06,29,1.80
2009,04,18,06,30,1.80
2009,04,18,06,31,1.80
2009,04,18,06,32,1.80
2009,04,18,06,33,1.80
2009,04,18,06,34,1.80
2009,04,18,06,35,1.80
2009,04,18,06,36,1.80
2009,04,18,06,37,1.80
2009,04,18,06,38,1.80
2009,04,18,06,39,1.80
2009,04,18,06,40,1.80
2009,04,18,06,41,1.80
2009,04,18,06,42,1.80
2009,04,18,06,43,1.80
2009,04,18,06,44,1.80
2009,04,18,06,45,1.80
2009,04,18,06,46,1.80
2009,04,18,06,47,1.80
2009,04,18,06,48,1.80
2009,04,18,06,49,1.80
2009,04,18,06,50,1.80
2009,04,18,06,51,1.80
2009,04,18,06,52,1.80
2009,04,18,06,53,1.90
2009,04,18,06,54,1.90
2009,04,18,06,55,1.90
2009,04,18,06,56,1.90
2009,04,18,06,57,1.90
2009,04,18,06,58,1.90
2009,04,18,06,59,1.90
2009,04,18,07,00,1.90
2009,04,18,07,01,1.90
2009,04,18,07,02,1.90
2009,04,18,07,03,1.90
2009,04,18,07,04,1.90
2009,04,18,07,05,1.90
2009,04,18,07,06,1.90
2009,04,18,07,07,2.00
2009,04,18,07,08,2.00
2009,04,18,07,09,2.00
2009,04,18,07,10,2.10
2009,04,18,07,11,2.10
2009,04,18,07,12,2.20
2009,04,18,07,13,2.20
2009,04,18,07,14,2.20
2009,04,18,07,15,2.30
2009,04,18,07,16,2.30
2009,04,18,07,17,2.30
2009,04,18,07,18,2.30
2009,04,18,07,19,2.30
2009,04,18,07,20,2.40
2009,04,18,07,21,2.40
2009,04,18,07,22,2.40
2009,04,18,07,23,2.50
2009,04,18,07,24,2.50
2009,04,18,07,25,2.60
2009,04,18,07,26,2.60
2009,04,18,07,27,2.60
2009,04,18,07,28,2.70
2009,04,18,07,29,2.70
2009,04,18,07,30,2.70
2009,04,18,07,31,2.70
2009,04,18,07,32,2.80
2009,04,18,07,33,2.80
2009,04,18,07,34,2.80
2009,04,18,07,35,2.90
2009,04,18,07,36,2.90
2009,04,18,07,37,3.00
2009,04,18,07,38,3.10
2009,04,18,07,39,3.10
2009,04,18,07,40,3.10
2009,04,18,07,41,3.20
2009,04,18,07,42,3.20
2009,04,18,07,43,3.20
2009,04,18,07,44,3.30
2009,04,18,07,45,3.30
2009,04,18,07,46,3.30
2009,04,18,07,47,3.40
2009,04,18,07,48,3.50
2009,04,18,07,49,3.50
2009,04,18,07,50,3.50
2009,04,18,07,51,3.60
2009,04,18,07,52,3.70
2009,04,18,07,53,3.70
2009,04,18,07,54,3.80
2009,04,18,07,55,3.80
2009,04,18,07,56,3.90
2009,04,18,07,57,3.90
2009,04,18,07,58,4.00
2009,04,18,07,59,4.10
2009,04,18,08,00,4.10
2009,04,18,08,01,4.10
2009,04,18,08,02,4.20
2009,04,18,08,03,4.20
2009,04,18,08,04,4.20
2009,04,18,08,05,4.30
2009,04,18,08,06,4.30
2009,04,18,08,07,4.30
2009,04,18,08,08,4.40
2009,04,18,08,09,4.40
2009,04,18,08,10,4.40
2009,04,18,08,11,4.40
2009,04,18,08,12,4.50
2009,04,18,08,13,4.50
2009,04,18,08,14,4.60
2009,04,18,08,15,4.60
2009,04,18,08,16,4.70
2009,04,18,08,17,4.70
2009,04,18,08,18,4.70
2009,04,18,08,19,4.70
2009,04,18,08,20,4.70
2009,04,18,08,21,4.80
2009,04,18,08,22,4.80
2009,04,18,08,23,4.80
2009,04,18,08,24,4.90
2009,04,18,08,25,4.90
2009,04,18,08,26,5.00
2009,04,18,08,27,5.10
2009,04,18,08,28,5.10
2009,04,18,08,29,5.20
2009,04,18,08,30,5.20
2009,04,18,08,31,5.30
2009,04,18,08,32,5.30
2009,04,18,08,33,5.40
2009,04,18,08,34,5.40
2009,04,18,08,35,5.40
2009,04,18,08,36,5.50
2009,04,18,08,37,5.50
2009,04,18,08,38,5.60
2009,04,18,08,39,5.60
2009,04,18,08,40,5.70
2009,04,18,08,41,5.70
2009,04,18,08,42,5.80
2009,04,18,08,43,5.90
2009,04,18,08,44,6.00
2009,04,18,08,45,6.00
2009,04,18,08,46,6.10
2009,04,18,08,47,6.20
2009,04,18,08,48,6.30
2009,04,18,08,49,6.30
2009,04,18,08,50,6.40
2009,04,18,08,51,6.50
2009,04,18,08,52,6.60
2009,04,18,08,53,6.80
2009,04,18,08,54,6.90
2009,04,18,08,55,7.00
2009,04,18,08,56,7.10
2009,04,18,08,57,7.20
2009,04,18,08,58,7.20
2009,04,18,08,59,7.30
2009,04,18,09,00,7.30
2009,04,18,09,01,7.40
2009,04,18,09,02,7.50
2009,04,18,09,03,7.60
2009,04,18,09,04,7.60
2009,04,18,09,05,7.70
2009,04,18,09,06,7.70
2009,04,18,09,07,7.80
2009,04,18,09,08,7.80
2009,04,18,09,09,7.80
2009,04,18,09,10,7.80
2009,04,18,09,11,7.80
2009,04,18,09,12,7.90
2009,04,18,09,13,7.90
2009,04,18,09,14,8.00
2009,04,18,09,15,8.00
2009,04,18,09,16,8.10
2009,04,18,09,17,8.20
2009,04,18,09,18,8.30
2009,04,18,09,19,8.40
2009,04,18,09,20,8.40
2009,04,18,09,21,8.50
2009,04,18,09,22,8.60
2009,04,18,09,23,8.70
2009,04,18,09,24,8.80
2009,04,18,09,25,8.90
2009,04,18,09,26,8.90
2009,04,18,09,27,9.00
2009,04,18,09,28,9.10
2009,04,18,09,29,9.10
2009,04,18,09,30,9.10
2009,04,18,09,31,9.10
2009,04,18,09,32,9.20
2009,04,18,09,33,9.20
2009,04,18,09,34,9.20
2009,04,18,09,35,9.20
2009,04,18,09,36,9.20
2009,04,18,09,37,9.10
2009,04,18,09,38,9.10
2009,04,18,09,39,9.10
2009,04,18,09,40,9.10
2009,04,18,09,41,9.20
2009,04,18,09,42,9.20
2009,04,18,09,43,9.30
2009,04,18,09,44,9.30
2009,04,18,09,45,9.40
2009,04,18,09,46,9.50
2009,04,18,09,47,9.50
2009,04,18,09,48,9.60
2009,04,18,09,49,9.50
2009,04,18,09,50,9.50
2009,04,18,09,51,9.50
2009,04,18,09,52,9.50
2009,04,18,09,53,9.50
2009,04,18,09,54,9.50
2009,04,18,09,55,9.60
2009,04,18,09,56,9.60
2009,04,18,09,57,9.70
2009,04,18,09,58,9.70
2009,04,18,09,59,9.70
2009,04,18,10,00,9.70
2009,04,18,10,01,9.70
2009,04,18,10,02,9.70
2009,04,18,10,03,9.70
2009,04,18,10,04,9.70
2009,04,18,10,05,9.80
2009,04,18,10,06,9.80
2009,04,18,10,07,9.80
2009,04,18,10,08,9.80
2009,04,18,10,09,9.80
2009,04,18,10,10,9.80
2009,04,18,10,11,9.80
2009,04,18,10,12,9.90
2009,04,18,10,13,9.90
2009,04,18,10,14,9.90
2009,04,18,10,15,9.90
2009,04,18,10,16,9.90
2009,04,18,10,17,9.80
2009,04,18,10,18,9.80
2009,04,18,10,19,9.90
2009,04,18,10,20,9.90
2009,04,18,10,21,9.90
2009,04,18,10,22,9.90
2009,04,18,10,23,9.90
2009,04,18,10,24,9.90
2009,04,18,10,25,10.00
2009,04,18,10,26,10.00
2009,04,18,10,27,10.00
2009,04,18,10,28,10.10
2009,04,18,10,29,10.10
2009,04,18,10,30,10.20
2009,04,18,10,31,10.30
2009,04,18,10,32,10.30
2009,04,18,10,33,10.30
2009,04,18,10,34,10.20
2009,04,18,10,35,10.30
2009,04,18,10,36,10.30
2009,04,18,10,37,10.30
2009,04,18,10,38,10.30
2009,04,18,10,39,10.30
2009,04,18,10,40,10.30
2009,04,18,10,41,10.30
2009,04,18,10,42,10.30
2009,04,18,10,43,10.30
2009,04,18,10,44,10.30
2009,04,18,10,45,10.30
2009,04,18,10,46,10.30
2009,04,18,10,47,10.30
2009,04,18,10,48,10.30
2009,04,18,10,49,10.30
2009,04,18,10,50,10.30
2009,04,18,10,51,10.30
2009,04,18,10,52,10.40
2009,04,18,10,53,10.40
2009,04,18,10,54,10.40
2009,04,18,10,55,10.40
2009,04,18,10,56,10.40
2009,04,18,10,57,10.40
2009,04,18,10,58,10.40
2009,04,18,10,59,10.40
2009,04,18,11,00,10.40
2009,04,18,11,01,10.50
2009,04,18,11,02,10.60
2009,04,18,11,03,10.60
2009,04,18,11,04,10.60
2009,04,18,11,05,10.60
2009,04,18,11,06,10.60
2009,04,18,11,07,10.60
2009,04,18,11,08,10.50
2009,04,18,11,09,10.40
2009,04,18,11,10,10.40
2009,04,18,11,11,10.40
2009,04,18,11,12,10.40
2009,04,18,11,13,10.40
2009,04,18,11,14,10.50
2009,04,18,11,15,10.50
2009,04,18,11,16,10.50
2009,04,18,11,17,10.60
2009,04,18,11,18,10.60
2009,04,18,11,19,10.70
2009,04,18,11,20,10.70
2009,04,18,11,21,10.70
2009,04,18,11,22,10.60
2009,04,18,11,23,10.50
2009,04,18,11,24,10.50
2009,04,18,11,25,10.50
2009,04,18,11,26,10.40
2009,04,18,11,27,10.40
2009,04,18,11,28,10.50
2009,04,18,11,29,10.50
2009,04,18,11,30,10.40
2009,04,18,11,31,10.50
2009,04,18,11,32,10.50
2009,04,18,11,33,10.50
2009,04,18,11,34,10.60
2009,04,18,11,35,10.60
2009,04,18,11,36,10.50
2009,04,18,11,37,10.50
2009,04,18,11,38,10.50
2009,04,18,11,39,10.50
2009,04,18,11,40,10.50
2009,04,18,11,41,10.60
2009,04,18,11,42,10.60
2009,04,18,11,43,10.50
2009,04,18,11,44,10.40
2009,04,18,11,45,10.50
2009,04,18,11,46,10.50
2009,04,18,11,47,10.60
2009,04,18,11,48,10.70
2009,04,18,11,49,10.80
2009,04,18,11,50,10.90
2009,04,18,11,51,11.00
2009,04,18,11,52,11.10
2009,04,18,11,53,11.10
2009,04,18,11,54,11.10
2009,04,18,11,55,11.10
2009,04,18,11,56,11.00
2009,04,18,11,57,11.10
2009,04,18,11,58,11.10
2009,04,18,11,59,11.20
2009,04,18,12,00,11.20
2009,04,18,12,01,11.10
2009,04,18,12,02,11.10
2009,04,18,12,03,11.00
2009,04,18,12,04,11.00
2009,04,18,12,05,11.00
2009,04,18,12,06,10.90
2009,04,18,12,07,10.80
2009,04,18,12,08,10.80
2009,04,18,12,09,10.80
2009,04,18,12,10,10.80
2009,04,18,12,11,10.80
2009,04,18,12,12,10.80
2009,04,18,12,13,10.80
2009,04,18,12,14,10.70
2009,04,18,12,15,10.80
2009,04,18,12,16,10.80
2009,04,18,12,17,10.90
2009,04,18,12,18,10.90
2009,04,18,12,19,10.90
2009,04,18,12,20,10.90
2009,04,18,12,21,10.90
2009,04,18,12,22,11.00
2009,04,18,12,23,11.00
2009,04,18,12,24,10.90
2009,04,18,12,25,10.90
2009,04,18,12,26,10.90
2009,04,18,12,27,10.90
2009,04,18,12,28,10.90
2009,04,18,12,29,11.00
2009,04,18,12,30,11.10
2009,04,18,12,31,11.20
2009,04,18,12,32,11.10
2009,04,18,12,33,11.10
2009,04,18,12,34,11.10
2009,04,18,12,35,11.10
2009,04,18,12,36,11.00
2009,04,18,12,37,11.10
2009,04,18,12,38,11.10
2009,04,18,12,39,11.10
2009,04,18,12,40,11.10
2009,04,18,12,41,11.20
2009,04,18,12,42,11.20
2009,04,18,12,43,11.20
2009,04,18,12,44,11.20
2009,04,18,12,45,11.20
2009,04,18,12,46,11.20
2009,04,18,12,47,11.30
2009,04,18,12,48,11.30
2009,04,18,12,49,11.40
2009,04,18,12,50,11.40
2009,04,18,12,51,11.40
2009,04,18,12,52,11.30
2009,04,18,12,53,11.30
2009,04,18,12,54,11.30
2009,04,18,12,55,11.30
2009,04,18,12,56,11.30
2009,04,18,12,57,11.30
2009,04,18,12,58,11.30
2009,04,18,12,59,11.30
2009,04,18,13,00,11.40
2009,04,18,13,01,11.30
2009,04,18,13,02,11.40
2009,04,18,13,03,11.40
2009,04,18,13,04,11.50
2009,04,18,13,05,11.40
2009,04,18,13,06,11.40
2009,04,18,13,07,11.30
2009,04,18,13,08,11.30
2009,04,18,13,09,11.30
2009,04,18,13,10,11.20
2009,04,18,13,11,11.30
2009,04,18,13,12,11.40
2009,04,18,13,13,11.40
2009,04,18,13,14,11.40
2009,04,18,13,15,11.50
2009,04,18,13,16,11.60
2009,04,18,13,17,11.60
2009,04,18,13,18,11.70
2009,04,18,13,19,11.80
2009,04,18,13,20,11.80
2009,04,18,13,21,11.80
2009,04,18,13,22,11.80
2009,04,18,13,23,11.90
2009,04,18,13,24,11.90
2009,04,18,13,25,11.90
2009,04,18,13,26,11.90
2009,04,18,13,27,11.90
2009,04,18,13,28,11.80
2009,04,18,13,29,11.70
2009,04,18,13,30,11.70
2009,04,18,13,31,11.70
2009,04,18,13,32,11.70
2009,04,18,13,33,11.80
2009,04,18,13,34,11.70
2009,04,18,13,35,11.60
2009,04,18,13,36,11.60
2009,04,18,13,37,11.60
2009,04,18,13,38,11.60
2009,04,18,13,39,11.60
2009,04,18,13,40,11.60
2009,04,18,13,41,11.70
2009,04,18,13,42,11.80
2009,04,18,13,43,11.80
2009,04,18,13,44,11.90
2009,04,18,13,45,11.90
2009,04,18,13,46,11.90
2009,04,18,13,47,11.90
2009,04,18,13,48,11.80
2009,04,18,13,49,11.70
2009,04,18,13,50,11.90
2009,04,18,13,51,11.90
2009,04,18,13,52,11.90
2009,04,18,13,53,11.90
2009,04,18,13,54,11.90
2009,04,18,13,55,11.90
2009,04,18,13,56,12.00
2009,04,18,13,57,11.90
2009,04,18,13,58,11.90
2009,04,18,13,59,11.90
2009,04,18,14,00,11.90
2009,04,18,14,01,11.90
2009,04,18,14,02,11.90
2009,04,18,14,03,12.00
2009,04,18,14,04,12.10
2009,04,18,14,05,12.00
2009,04,18,14,06,12.00
2009,04,18,14,07,12.00
2009,04,18,14,08,12.00
2009,04,18,14,09,12.00
2009,04,18,14,10,12.00
2009,04,18,14,11,11.80
2009,04,18,14,12,11.80
2009,04,18,14,13,11.70
2009,04,18,14,14,11.70
2009,04,18,14,15,11.80
2009,04,18,14,16,11.80
2009,04,18,14,17,11.80
2009,04,18,14,18,11.80
2009,04,18,14,19,11.80
2009,04,18,14,20,11.80
2009,04,18,14,21,11.80
2009,04,18,14,22,11.80
2009,04,18,14,23,11.90
2009,04,18,14,24,11.80
2009,04,18,14,25,11.70
2009,04,18,14,26,11.60
2009,04,18,14,27,11.50
2009,04,18,14,28,11.50
2009,04,18,14,29,11.50
2009,04,18,14,30,11.60
2009,04,18,14,31,11.60
2009,04,18,14,32,11.60
2009,04,18,14,33,11.70
2009,04,18,14,34,11.70
2009,04,18,14,35,11.70
2009,04,18,14,36,11.60
2009,04,18,14,37,11.60
2009,04,18,14,38,11.60
2009,04,18,14,39,11.60
2009,04,18,14,40,11.60
2009,04,18,14,41,11.60
2009,04,18,14,42,11.70
2009,04,18,14,43,11.80
2009,04,18,14,44,11.80
2009,04,18,14,45,11.80
2009,04,18,14,46,11.70
2009,04,18,14,47,11.70
2009,04,18,14,48,11.70
2009,04,18,14,49,11.70
2009,04,18,14,50,11.70
2009,04,18,14,51,11.80
2009,04,18,14,52,11.70
2009,04,18,14,53,11.70
2009,04,18,14,54,11.70
2009,04,18,14,55,11.70
2009,04,18,14,56,11.80
2009,04,18,14,57,11.80
2009,04,18,14,58,11.80
2009,04,18,14,59,11.90
2009,04,18,15,00,11.90
2009,04,18,15,01,12.00
2009,04,18,15,02,12.00
2009,04,18,15,03,12.00
2009,04,18,15,04,12.00
2009,04,18,15,05,12.10
2009,04,18,15,06,12.10
2009,04,18,15,07,12.20
2009,04,18,15,08,12.30
2009,04,18,15,09,12.40
2009,04,18,15,10,12.50
2009,04,18,15,11,12.50
2009,04,18,15,12,12.50
2009,04,18,15,13,12.40
2009,04,18,15,14,12.20
2009,04,18,15,15,12.10
2009,04,18,15,16,12.10
2009,04,18,15,17,12.10
2009,04,18,15,18,12.00
2009,04,18,15,19,12.10
2009,04,18,15,20,12.10
2009,04,18,15,21,12.10
2009,04,18,15,22,12.10
2009,04,18,15,23,12.10
2009,04,18,15,24,12.00
2009,04,18,15,25,11.90
2009,04,18,15,26,12.00
2009,04,18,15,27,12.00
2009,04,18,15,28,12.10
2009,04,18,15,29,12.20
2009,04,18,15,30,12.30
2009,04,18,15,31,12.20
2009,04,18,15,32,12.20
2009,04,18,15,33,12.30
2009,04,18,15,34,12.30
2009,04,18,15,35,12.40
2009,04,18,15,36,12.40
2009,04,18,15,37,12.40
2009,04,18,15,38,12.40
2009,04,18,15,39,12.50
2009,04,18,15,40,12.50
2009,04,18,15,41,12.60
2009,04,18,15,42,12.70
2009,04,18,15,43,12.80
2009,04,18,15,44,12.80
2009,04,18,15,45,12.80
2009,04,18,15,46,12.80
2009,04,18,15,47,12.70
2009,04,18,15,48,12.60
2009,04,18,15,49,12.70
2009,04,18,15,50,12.60
2009,04,18,15,51,12.50
2009,04,18,15,52,12.60
2009,04,18,15,53,12.60
2009,04,18,15,54,12.60
2009,04,18,15,55,12.60
2009,04,18,15,56,12.80
2009,04,18,15,57,12.80
2009,04,18,15,58,12.90
2009,04,18,15,59,13.00
2009,04,18,16,00,13.00
2009,04,18,16,01,12.90
2009,04,18,16,02,12.90
2009,04,18,16,03,12.80
2009,04,18,16,04,12.80
2009,04,18,16,05,12.70
2009,04,18,16,06,12.70
2009,04,18,16,07,12.70
2009,04,18,16,08,12.80
2009,04,18,16,09,12.80
2009,04,18,16,10,12.70
2009,04,18,16,11,12.70
2009,04,18,16,12,12.70
2009,04,18,16,13,12.70
2009,04,18,16,14,12.70
2009,04,18,16,15,12.70
2009,04,18,16,16,12.60
2009,04,18,16,17,12.60
2009,04,18,16,18,12.70
2009,04,18,16,19,12.70
2009,04,18,16,20,12.70
2009,04,18,16,21,12.80
2009,04,18,16,22,12.80
2009,04,18,16,23,12.80
2009,04,18,16,24,12.80
2009,04,18,16,25,12.80
2009,04,18,16,26,12.80
2009,04,18,16,27,12.70
2009,04,18,16,28,12.60
2009,04,18,16,29,12.60
2009,04,18,16,30,12.60
2009,04,18,16,31,12.50
2009,04,18,16,32,12.50
2009,04,18,16,33,12.50
2009,04,18,16,34,12.60
2009,04,18,16,35,12.60
2009,04,18,16,36,12.60
2009,04,18,16,37,12.60
2009,04,18,16,38,12.50
2009,04,18,16,39,12.50
2009,04,18,16,40,12.50
2009,04,18,16,41,12.50
2009,04,18,16,42,12.40
2009,04,18,16,43,12.40
2009,04,18,16,44,12.40
2009,04,18,16,45,12.40
2009,04,18,16,46,12.40
2009,04,18,16,47,12.40
2009,04,18,16,48,12.40
2009,04,18,16,49,12.40
2009,04,18,16,50,12.40
2009,04,18,16,51,12.40
2009,04,18,16,52,12.40
2009,04,18,16,53,12.40
2009,04,18,16,54,12.30
2009,04,18,16,55,12.30
2009,04,18,16,56,12.20
2009,04,18,16,57,12.10
2009,04,18,16,58,12.10
2009,04,18,16,59,12.10
2009,04,18,17,00,12.10
2009,04,18,17,01,12.10
2009,04,18,17,02,12.10
2009,04,18,17,03,12.10
2009,04,18,17,04,12.10
2009,04,18,17,05,12.00
2009,04,18,17,06,12.00
2009,04,18,17,07,12.10
2009,04,18,17,08,12.10
2009,04,18,17,09,12.10
2009,04,18,17,10,12.20
2009,04,18,17,11,12.20
2009,04,18,17,12,12.20
2009,04,18,17,13,12.20
2009,04,18,17,14,12.30
2009,04,18,17,15,12.40
2009,04,18,17,16,12.40
2009,04,18,17,17,12.50
2009,04,18,17,18,12.50
2009,04,18,17,19,12.50
2009,04,18,17,20,12.60
2009,04,18,17,21,12.60
2009,04,18,17,22,12.70
2009,04,18,17,23,12.70
2009,04,18,17,24,12.80
2009,04,18,17,25,12.80
2009,04,18,17,26,12.80
2009,04,18,17,27,12.80
2009,04,18,17,28,12.80
2009,04,18,17,29,12.80
2009,04,18,17,30,12.70
2009,04,18,17,31,12.70
2009,04,18,17,32,12.70
2009,04,18,17,33,12.60
2009,04,18,17,34,12.60
2009,04,18,17,35,12.60
2009,04,18,17,36,12.60
2009,04,18,17,37,12.60
2009,04,18,17,38,12.50
2009,04,18,17,39,12.50
2009,04,18,17,40,12.50
2009,04,18,17,41,12.60
2009,04,18,17,42,12.60
2009,04,18,17,43,12.60
2009,04,18,17,44,12.60
2009,04,18,17,45,12.60
2009,04,18,17,46,12.60
2009,04,18,17,47,12.50